7 * 24
多渠道服务支持
STARLINK-34828是美国于2025年8月28日发射的星链卫星,归属SpaceX星链项目。星链项目旨在搭建全球卫星互联网星座,为全球多地提供高速低延迟网络服务,该卫星加入星座后,进一步扩充了星链卫星互联网的覆盖范围与服务能力。
美国
(US)
| 数据来源 | 国际轨道数据 |
| 星历时间: | 2026-09-11T23:51:23+0800 1天前 查看轨道信息 |
| 半长轴: | 6840.831km |
| 偏心率: | 0.0001285 |
| 轨道倾角: | 53.161° |
| 近地点辐角 | 90.556° |
| 升交点赤经 | 23.266° |
| 平近点角 | 269.559° |
| 近地点: | 461.814km |
| 远地点: | 463.574km |
| 周期: | 93.848分钟 |
| 每日圈数: | 15.344033 |